Weather History for Coatesville, PA

Change the Weather History Date:

Wednesday, April 3, 2013

  Actual Average (KLNS) Record (KLNS)
Temperature  
Mean Temperature 37 °F -  
Max Temperature 46 °F 58 °F 78 °F (1981)
Min Temperature 28 °F 37 °F 24 °F (1985)
Degree Days  
Heating Degree Days 28    
Moisture  
Dew Point 14 °F    
Average Humidity 41    
Maximum Humidity 64    
Minimum Humidity 25    
Precipitation  
Precipitation 0.00 in - - ()
Sea Level Pressure  
Sea Level Pressure 30.21 in    
Wind  
Wind Speed 11 mph (WNW)    
Max Wind Speed 24 mph    
Max Gust Speed 33 mph    
Visibility 10 miles    
Events      
Averages and records for this station are not official NWS values.
T = Trace of Precipitation, MM = Missing Value Source: NWS Daily Summary

Daily Weather History Graph

Daily Weather History Graph

Search for Another Location

Airport:

Trip Planner

Search our weather history database for the weather conditions in past years. The results will help you decide how hot, cold, wet, or windy it might be!

Date:

Astronomy

Apr. 03, 2013 Rise Set
Actual Time 6:43 AM EDT 7:30 PM EDT
Civil Twilight 6:16 AM EDT 7:57 PM EDT
Nautical Twilight 5:44 AM EDT 8:29 PM EDT
Astronomical Twilight 5:10 AM EDT 9:03 PM EDT
Moon 2:22 AM EDT (4/3) 12:39 PM EDT (4/3)
Length of Visible Light 13h 40m
Length of Day
12h 46m
Last Quarter, 45% of the Moon is Illuminated
Apr 3
Last Quarter
Apr 10
New
Apr 18
First Quarter
Apr 25
Full
May 2
Last Quarter

Hourly Weather History & Observations

Time (EDT) Temp. Windchill Dew Point Humidity Pressure Visibility Wind Dir Wind Speed Gust Speed Precip Events Conditions
12:15 AM 32.0 °F 23.6 °F 15.8 °F 51% 30.14 in 10.0 mi WNW 10.4 mph - N/A   Clear
12:35 AM 32.0 °F 24.8 °F 15.8 °F 51% 30.14 in 10.0 mi NW 8.1 mph - N/A   Clear
12:55 AM 33.8 °F 25.8 °F 14.0 °F 44% 30.14 in 10.0 mi NW 10.4 mph - N/A   Clear
1:15 AM 33.8 °F 24.3 °F 14.0 °F 44% 30.14 in 10.0 mi NW 13.8 mph - N/A   Clear
1:35 AM 32.0 °F 22.5 °F 14.0 °F 48% 30.15 in 10.0 mi NW 12.7 mph - N/A   Clear
1:55 AM 32.0 °F 22.5 °F 14.0 °F 48% 30.15 in 10.0 mi NW 12.7 mph - N/A   Clear
2:15 AM 32.0 °F 24.2 °F 14.0 °F 48% 30.15 in 10.0 mi NW 9.2 mph - N/A   Clear
2:35 AM 32.0 °F 23.6 °F 12.2 °F 44% 30.14 in 10.0 mi NW 10.4 mph - N/A   Clear
2:55 AM 32.0 °F 24.2 °F 12.2 °F 44% 30.14 in 10.0 mi NW 9.2 mph - N/A   Clear
3:15 AM 32.0 °F 23.0 °F 12.2 °F 44% 30.14 in 10.0 mi NW 11.5 mph - N/A   Clear
3:35 AM 32.0 °F 24.2 °F 12.2 °F 44% 30.14 in 10.0 mi WNW 9.2 mph - N/A   Clear
3:55 AM 30.2 °F 22.6 °F 14.0 °F 51% 30.15 in 10.0 mi WNW 8.1 mph - N/A   Clear
4:15 AM 32.0 °F 27.5 °F 12.2 °F 44% 30.15 in 10.0 mi West 4.6 mph - N/A   Clear
4:35 AM 32.0 °F 27.5 °F 12.2 °F 44% 30.16 in 10.0 mi WSW 4.6 mph - N/A   Clear
4:55 AM 32.0 °F 28.7 °F 12.2 °F 44% 30.16 in 10.0 mi SW 3.5 mph - N/A   Clear
5:15 AM 32.0 °F 28.7 °F 12.2 °F 44% 30.17 in 10.0 mi SW 3.5 mph - N/A   Clear
5:35 AM 32.0 °F 28.7 °F 14.0 °F 48% 30.17 in 10.0 mi SW 3.5 mph - N/A   Clear
5:55 AM 32.0 °F - 14.0 °F 48% 30.17 in 10.0 mi Calm Calm - N/A   Clear
6:15 AM 30.2 °F 26.7 °F 14.0 °F 51% 30.18 in 10.0 mi WSW 3.5 mph - N/A   Clear
6:35 AM 32.0 °F 28.7 °F 14.0 °F 48% 30.18 in 10.0 mi West 3.5 mph - N/A   Clear
6:55 AM 28.4 °F - 14.0 °F 55% 30.19 in 10.0 mi Calm Calm - N/A   Clear
7:15 AM 30.2 °F - 14.0 °F 51% 30.20 in 10.0 mi Calm Calm - N/A   Clear
7:35 AM 32.0 °F 28.7 °F 14.0 °F 48% 30.20 in 10.0 mi West 3.5 mph - N/A   Clear
7:55 AM 32.0 °F 28.7 °F 14.0 °F 48% 30.21 in 10.0 mi West 3.5 mph - N/A   Clear
8:15 AM 33.8 °F 28.6 °F 17.6 °F 52% 30.22 in 10.0 mi West 5.8 mph - N/A   Clear
8:35 AM 33.8 °F 29.6 °F 19.4 °F 56% 30.23 in 10.0 mi West 4.6 mph - N/A   Clear
8:55 AM 35.6 °F 27.1 °F 17.6 °F 48% 30.21 in 10.0 mi WNW 12.7 mph - N/A   Clear
9:15 AM 37.4 °F 29.8 °F 15.8 °F 41% 30.21 in 10.0 mi NW 11.5 mph - N/A   Clear
9:35 AM 37.4 °F 30.8 °F 17.6 °F 45% 30.21 in 10.0 mi West 9.2 mph 17.3 mph N/A   Clear
9:55 AM 37.4 °F 30.3 °F 17.6 °F 45% 30.21 in 10.0 mi WNW 10.4 mph - N/A   Clear
10:15 AM 39.2 °F 30.2 °F 17.6 °F 42% 30.21 in 10.0 mi NW 17.3 mph 23.0 mph N/A   Clear
10:35 AM 39.2 °F 30.8 °F 17.6 °F 42% 30.22 in 10.0 mi West 15.0 mph 20.7 mph N/A   Partly Cloudy
11:15 AM 39.2 °F 30.8 °F 15.8 °F 39% 30.23 in 10.0 mi NW 15.0 mph 21.9 mph N/A   Scattered Clouds
11:35 AM 41.0 °F 33.5 °F 14.0 °F 33% 30.23 in 10.0 mi WNW 13.8 mph 27.6 mph N/A   Partly Cloudy
11:55 AM 42.8 °F 35.1 °F 17.6 °F 36% 30.23 in 10.0 mi West 16.1 mph 23.0 mph N/A   Scattered Clouds
12:15 PM 42.8 °F 35.8 °F 14.0 °F 31% 30.21 in 10.0 mi NW 13.8 mph 24.2 mph N/A   Partly Cloudy
12:35 PM 41.0 °F 33.5 °F 15.8 °F 36% 30.21 in 10.0 mi West 13.8 mph 23.0 mph N/A   Scattered Clouds
12:55 PM 42.8 °F 36.6 °F 14.0 °F 31% 30.21 in 10.0 mi West 11.5 mph 24.2 mph N/A   Scattered Clouds
1:15 PM 41.0 °F 32.8 °F 14.0 °F 33% 30.20 in 10.0 mi WNW 16.1 mph 25.3 mph N/A   Clear
1:35 PM 44.6 °F 37.4 °F 14.0 °F 29% 30.19 in 10.0 mi WNW 16.1 mph 27.6 mph N/A   Partly Cloudy
1:55 PM 46.4 °F 38.7 °F 14.0 °F 27% 30.18 in 10.0 mi WNW 20.7 mph 26.5 mph N/A   Partly Cloudy
2:15 PM 44.6 °F 36.9 °F 14.0 °F 29% 30.18 in 10.0 mi WNW 18.4 mph 27.6 mph N/A   Clear
2:35 PM 44.6 °F 37.4 °F 14.0 °F 29% 30.18 in 10.0 mi NW 16.1 mph 28.8 mph N/A   Partly Cloudy
2:55 PM 44.6 °F 36.9 °F 12.2 °F 27% 30.17 in 10.0 mi NW 18.4 mph 27.6 mph N/A   Partly Cloudy
3:15 PM 44.6 °F 36.6 °F 12.2 °F 27% 30.18 in 10.0 mi NW 19.6 mph 31.1 mph N/A   Partly Cloudy
3:55 PM 46.4 °F 39.0 °F 12.2 °F 25% 30.18 in 10.0 mi NNW 19.6 mph 25.3 mph N/A   Mostly Cloudy
4:15 PM 42.8 °F 34.8 °F 10.4 °F 27% 30.18 in 10.0 mi NW 17.3 mph 31.1 mph N/A   Scattered Clouds
4:35 PM 44.6 °F 37.4 °F 12.2 °F 27% 30.19 in 10.0 mi NNW 16.1 mph 33.4 mph N/A   Mostly Cloudy
4:55 PM 42.8 °F 34.0 °F 10.4 °F 27% 30.19 in 10.0 mi NW 20.7 mph 26.5 mph N/A   Scattered Clouds
5:15 PM 42.8 °F 34.3 °F 10.4 °F 27% 30.21 in 10.0 mi NW 19.6 mph 25.3 mph N/A   Partly Cloudy
5:35 PM 42.8 °F 33.3 °F 10.4 °F 27% 30.22 in 10.0 mi NW 24.2 mph 31.1 mph N/A   Partly Cloudy
5:55 PM 42.8 °F 35.4 °F 12.2 °F 29% 30.24 in 10.0 mi NW 15.0 mph 27.6 mph N/A   Clear
6:15 PM 41.0 °F 31.1 °F 10.4 °F 29% 30.25 in 10.0 mi WNW 23.0 mph 28.8 mph N/A   Clear
6:35 PM 42.8 °F 34.5 °F 10.4 °F 27% 30.26 in 10.0 mi NW 18.4 mph 27.6 mph N/A   Partly Cloudy
6:55 PM 41.0 °F 33.5 °F 10.4 °F 29% 30.27 in 10.0 mi WNW 13.8 mph 26.5 mph N/A   Partly Cloudy
7:15 PM 39.2 °F 29.6 °F 8.6 °F 28% 30.29 in 10.0 mi NW 19.6 mph 31.1 mph N/A   Clear
7:35 PM 37.4 °F 28.2 °F 10.4 °F 33% 30.29 in 10.0 mi WNW 16.1 mph 21.9 mph N/A   Clear
7:55 PM 37.4 °F 28.5 °F 10.4 °F 33% 30.30 in 10.0 mi NW 15.0 mph - N/A   Clear
8:15 PM 37.4 °F 29.8 °F 10.4 °F 33% 30.31 in 10.0 mi WNW 11.5 mph 17.3 mph N/A   Clear
8:35 PM 35.6 °F 28.0 °F 12.2 °F 38% 30.31 in 10.0 mi NW 10.4 mph - N/A   Clear
8:55 PM 35.6 °F 27.1 °F 12.2 °F 38% 30.31 in 10.0 mi NW 12.7 mph 18.4 mph N/A   Clear
9:15 PM 35.6 °F 26.6 °F 14.0 °F 41% 30.32 in 10.0 mi NW 13.8 mph - N/A   Clear
9:35 PM 33.8 °F 25.8 °F 15.8 °F 48% 30.32 in 10.0 mi WNW 10.4 mph - N/A   Clear
9:55 PM 33.8 °F 24.8 °F 17.6 °F 52% 30.32 in 10.0 mi NW 12.7 mph - N/A   Clear
10:15 PM 33.8 °F 24.8 °F 17.6 °F 52% 30.33 in 10.0 mi NW 12.7 mph - N/A   Clear
10:35 PM 32.0 °F 23.6 °F 17.6 °F 55% 30.33 in 10.0 mi NW 10.4 mph - N/A   Clear
11:15 PM 32.0 °F 25.6 °F 17.6 °F 55% 30.33 in 10.0 mi West 6.9 mph - N/A   Clear
11:35 PM 28.4 °F 20.4 °F 17.6 °F 64% 30.33 in 10.0 mi NW 8.1 mph - N/A   Clear
11:55 PM 32.0 °F 26.4 °F 17.6 °F 55% 30.32 in 10.0 mi West 5.8 mph - N/A   Clear